| time (UTC) | temp F | wind direction | speed knots | gust knots | rain 1hr in | rain 24hr in | rain mn in | humidity % | barometer mb |
| 20260505151521 | 72 | 245 | 7.8 | 0.0 | 0.00 | 0.00 | 0.13 | 45 | 1006.4 |
| 20260505150117 | 71 | 218 | 7.0 | 0.0 | 0.00 | 0.00 | 0.13 | 48 | 1006.4 |
| 20260505140109 | 67 | 228 | 4.3 | 0.0 | 0.00 | 0.00 | 0.13 | 51 | 1007.3 |
| 20260505124554 | 64 | 216 | 7.8 | 0.0 | 0.00 | 0.00 | 0.13 | 55 | 1007.5 |
| 20260505123049 | 63 | 200 | 6.1 | 0.0 | 0.00 | 0.00 | 0.13 | 55 | 1007.6 |
| 20260505121545 | 62 | 215 | 6.1 | 0.0 | 0.00 | 0.00 | 0.13 | 56 | 1007.6 |
| 20260505120042 | 61 | 213 | 5.2 | 0.0 | 0.00 | 0.00 | 0.13 | 56 | 1007.7 |
| 20260505114544 | 60 | 219 | 4.3 | 0.0 | 0.00 | 0.00 | 0.13 | 57 | 1007.7 |
| 20260505113035 | 59 | 222 | 4.3 | 0.0 | 0.00 | 0.00 | 0.13 | 56 | 1007.7 |
| 20260505111536 | 58 | 198 | 5.2 | 0.0 | 0.00 | 0.00 | 0.13 | 56 | 1007.6 |
| 20260505101520 | 52 | 202 | 0.9 | 0.0 | 0.00 | 0.00 | 0.13 | 23 | 1007.0 |
| 20260505100019 | 52 | 204 | 0.0 | 0.0 | 0.00 | 0.00 | 0.13 | 15 | 1007.0 |
| 20260505094519 | 52 | 204 | 0.0 | 0.0 | 0.00 | 0.00 | 0.13 | 23 | 1006.8 |
| 20260505093014 | 53 | 204 | 0.0 | 0.0 | 0.00 | 0.00 | 0.13 | 34 | 1006.7 |
| 20260505091509 | 55 | 204 | 0.0 | 0.0 | 0.00 | 0.00 | 0.13 | 47 | 1006.6 |
| 20260505090007 | 57 | 204 | 3.5 | 0.0 | 0.00 | 0.00 | 0.07 | 63 | 1007.5 |
| 20260505084504 | 57 | 202 | 3.5 | 0.0 | 0.00 | 0.00 | 0.00 | 59 | 1007.7 |
| 20260505083002 | 57 | 217 | 3.5 | 0.0 | 0.00 | 0.00 | 0.00 | 58 | 1006.8 |
| 20260505081604 | 58 | 190 | 3.5 | 0.0 | 0.00 | 0.00 | 0.00 | 58 | 1006.9 |
| 20260505080057 | 58 | 211 | 4.3 | 0.0 | 0.00 | 0.00 | 0.00 | 57 | 1007.1 |
| 20260505074610 | 58 | 230 | 4.3 | 0.0 | 0.00 | 0.00 | 0.00 | 57 | 1007.2 |
| 20260505073054 | 58 | 250 | 3.5 | 0.0 | 0.00 | 0.00 | 0.00 | 56 | 1007.0 |
| 20260505071551 | 58 | 214 | 4.3 | 0.0 | 0.00 | 0.00 | 0.00 | 56 | 1007.1 |
| 20260505070052 | 57 | 211 | 2.6 | 0.0 | 0.00 | 0.00 | 0.00 | 56 | 1007.1 |
| 20260505064549 | 58 | 195 | 0.9 | 0.0 | 0.00 | 0.00 | 0.00 | 55 | 1007.2 |
| 20260505063050 | 58 | 208 | 3.5 | 0.0 | 0.00 | 0.00 | 0.00 | 54 | 1007.1 |
| 20260505061609 | 58 | 178 | 5.2 | 0.0 | 0.00 | 0.00 | 0.00 | 54 | 1007.2 |
| 20260505060045 | 59 | 207 | 5.2 | 0.0 | 0.00 | 0.00 | 0.00 | 53 | 1007.1 |
| 20260505054554 | 59 | 202 | 4.3 | 0.0 | 0.00 | 0.00 | 0.00 | 52 | 1007.2 |
| 20260505053038 | 59 | 206 | 6.1 | 0.0 | 0.00 | 0.00 | 0.00 | 52 | 1007.2 |
| 20260505051536 | 59 | 211 | 5.2 | 0.0 | 0.00 | 0.00 | 0.00 | 51 | 1007.3 |
| 20260505041529 | 59 | 217 | 4.3 | 0.0 | 0.00 | 0.00 | 0.00 | 51 | 1007.6 |
| 20260505040128 | 59 | 200 | 6.1 | 0.0 | 0.00 | 0.00 | 0.00 | 51 | 1007.6 |
| 20260505034527 | 59 | 211 | 4.3 | 0.0 | 0.00 | 0.00 | 0.00 | 50 | 1007.6 |
| 20260505033035 | 60 | 208 | 5.2 | 0.0 | 0.00 | 0.00 | 0.00 | 50 | 1007.5 |
| 20260505031526 | 60 | 198 | 6.1 | 0.0 | 0.00 | 0.00 | 0.00 | 49 | 1007.8 |
| 20260505030026 | 60 | 207 | 4.3 | 0.0 | 0.00 | 0.00 | 0.00 | 49 | 1007.8 |
| 20260505024548 | 60 | 202 | 5.2 | 0.0 | 0.00 | 0.00 | 0.00 | 48 | 1007.8 |
| 20260505023034 | 61 | 178 | 7.0 | 0.0 | 0.00 | 0.00 | 0.00 | 47 | 1007.8 |
| 20260505021542 | 60 | 219 | 5.2 | 0.0 | 0.00 | 0.00 | 0.00 | 46 | 1007.9 |
| 20260505020023 | 60 | 184 | 3.5 | 0.0 | 0.00 | 0.00 | 0.00 | 46 | 1008.1 |
| 20260505014527 | 60 | 198 | 3.5 | 0.0 | 0.00 | 0.00 | 0.00 | 46 | 1008.1 |
| 20260505013025 | 60 | 205 | 1.7 | 0.0 | 0.00 | 0.00 | 0.00 | 47 | 1008.0 |
| 20260505011528 | 60 | 190 | 0.9 | 0.0 | 0.00 | 0.00 | 0.00 | 46 | 1007.8 |
| 20260505010023 | 60 | 212 | 1.7 | 0.0 | 0.00 | 0.00 | 0.00 | 45 | 1007.7 |
| 20260505004537 | 60 | 218 | 0.9 | 0.0 | 0.00 | 0.00 | 0.00 | 46 | 1007.7 |
| 20260505003026 | 61 | 219 | 0.9 | 0.0 | 0.00 | 0.00 | 0.00 | 45 | 1007.6 |
| 20260505001526 | 61 | 223 | 0.9 | 0.0 | 0.00 | 0.00 | 0.00 | 44 | 1007.3 |
| 20260505000026 | 62 | 223 | 0.9 | 0.0 | 0.00 | 0.00 | 0.00 | 43 | 1007.3 |
| 20260504234523 | 63 | 224 | 1.7 | 0.0 | 0.00 | 0.00 | 0.00 | 42 | 1007.2 |
| 20260504233022 | 64 | 225 | 2.6 | 0.0 | 0.00 | 0.00 | 0.00 | 41 | 1006.9 |
| 20260504231521 | 64 | 216 | 3.5 | 0.0 | 0.00 | 0.00 | 0.00 | 41 | 1006.8 |
| 20260504230022 | 65 | 175 | 5.2 | 0.0 | 0.00 | 0.00 | 0.00 | 40 | 1006.7 |
| 20260504224523 | 66 | 206 | 5.2 | 0.0 | 0.00 | 0.00 | 0.00 | 38 | 1006.7 |
| 20260504223027 | 66 | 212 | 4.3 | 0.0 | 0.00 | 0.00 | 0.00 | 38 | 1006.8 |
| 20260504221525 | 66 | 217 | 6.1 | 0.0 | 0.00 | 0.00 | 0.00 | 38 | 1006.8 |
| 20260504220024 | 66 | 213 | 6.1 | 0.0 | 0.00 | 0.00 | 0.00 | 38 | 1006.7 |
| 20260504214518 | 67 | 178 | 3.5 | 0.0 | 0.00 | 0.00 | 0.00 | 38 | 1006.7 |
| 20260504213021 | 67 | 222 | 4.3 | 0.0 | 0.00 | 0.00 | 0.00 | 38 | 1006.9 |
| 20260504211519 | 66 | 228 | 5.2 | 0.0 | 0.00 | 0.00 | 0.00 | 38 | 1007.0 |
| 20260504210016 | 66 | 228 | 6.1 | 0.0 | 0.00 | 0.00 | 0.00 | 38 | 1007.0 |
| 20260504204518 | 66 | 243 | 6.1 | 0.0 | 0.00 | 0.00 | 0.00 | 38 | 1007.1 |
| 20260504203017 | 67 | 186 | 5.2 | 0.0 | 0.00 | 0.00 | 0.00 | 38 | 1007.1 |
| 20260504201514 | 65 | 186 | 5.2 | 0.0 | 0.00 | 0.00 | 0.00 | 40 | 1007.2 |
| 20260504200017 | 66 | 200 | 3.5 | 0.0 | 0.00 | 0.00 | 0.00 | 39 | 1007.6 |
| 20260504194513 | 66 | 195 | 4.3 | 0.0 | 0.00 | 0.00 | 0.00 | 39 | 1007.8 |
| 20260504193013 | 64 | 240 | 4.3 | 0.0 | 0.00 | 0.00 | 0.00 | 40 | 1008.0 |
| 20260504191514 | 66 | 280 | 5.2 | 0.0 | 0.00 | 0.00 | 0.00 | 40 | 1008.3 |
| 20260504190008 | 64 | 248 | 3.5 | 0.0 | 0.00 | 0.00 | 0.00 | 41 | 1008.3 |
| 20260504184506 | 63 | 292 | 6.1 | 0.0 | 0.00 | 0.00 | 0.00 | 42 | 1008.5 |
| 20260504183005 | 63 | 219 | 7.0 | 0.0 | 0.00 | 0.00 | 0.00 | 41 | 1008.6 |
| 20260504181505 | 64 | 229 | 7.8 | 0.0 | 0.00 | 0.00 | 0.00 | 41 | 1008.5 |
| 20260504180003 | 63 | 237 | 6.1 | 0.0 | 0.00 | 0.00 | 0.00 | 41 | 1008.4 |
| 20260504174507 | 62 | 244 | 7.0 | 0.0 | 0.00 | 0.00 | 0.00 | 43 | 1008.6 |
| 20260504173008 | 62 | 220 | 5.2 | 0.0 | 0.00 | 0.00 | 0.00 | 43 | 1008.7 |
| 20260504171505 | 62 | 225 | 7.8 | 0.0 | 0.00 | 0.00 | 0.00 | 42 | 1008.8 |